| time (UTC) | temp F | wind direction | speed knots | gust knots | rain 1hr in | rain 24hr in | rain mn in | humidity % | barometer mb |
| 20260506180256 | 53 | 157 | 2.6 | 7.0 | 0.00 | 0.00 | 0.00 | 85 | 1014.1 |
| 20260506175756 | 53 | 180 | 2.6 | 5.2 | 0.00 | 0.00 | 0.00 | 85 | 1014.1 |
| 20260506175256 | 53 | 180 | 1.7 | 5.2 | 0.00 | 0.00 | 0.00 | 84 | 1014.0 |
| 20260506174756 | 53 | 180 | 1.7 | 5.2 | 0.00 | 0.00 | 0.00 | 84 | 1013.9 |
| 20260506174256 | 54 | 157 | 1.7 | 5.2 | 0.00 | 0.00 | 0.00 | 84 | 1013.9 |
| 20260506173756 | 54 | 157 | 3.5 | 6.1 | 0.00 | 0.00 | 0.00 | 83 | 1013.7 |
| 20260506173256 | 54 | 157 | 5.2 | 7.0 | 0.00 | 0.00 | 0.00 | 83 | 1013.7 |
| 20260506172756 | 54 | 157 | 2.6 | 7.0 | 0.00 | 0.00 | 0.00 | 82 | 1013.7 |
| 20260506172256 | 54 | 157 | 5.2 | 6.1 | 0.00 | 0.00 | 0.00 | 82 | 1013.8 |
| 20260506171756 | 54 | 157 | 3.5 | 4.3 | 0.00 | 0.00 | 0.00 | 82 | 1013.8 |
| 20260506171256 | 54 | 157 | 1.7 | 5.2 | 0.00 | 0.00 | 0.00 | 82 | 1013.9 |
| 20260506170756 | 55 | 157 | 1.7 | 5.2 | 0.00 | 0.00 | 0.00 | 81 | 1013.8 |
| 20260506170256 | 55 | 135 | 2.6 | 5.2 | 0.00 | 0.00 | 0.00 | 81 | 1013.9 |
| 20260506165756 | 55 | 135 | 2.6 | 3.5 | 0.00 | 0.00 | 0.00 | 79 | 1013.8 |
| 20260506165256 | 56 | 157 | 3.5 | 5.2 | 0.00 | 0.00 | 0.00 | 79 | 1013.7 |
| 20260506164756 | 56 | 157 | 2.6 | 7.0 | 0.00 | 0.00 | 0.00 | 78 | 1013.8 |
| 20260506164256 | 57 | 157 | 4.3 | 5.2 | 0.00 | 0.00 | 0.00 | 78 | 1013.8 |
| 20260506163756 | 57 | 180 | 2.6 | 7.0 | 0.00 | 0.00 | 0.00 | 77 | 1013.7 |
| 20260506163256 | 58 | 135 | 3.5 | 4.3 | 0.00 | 0.00 | 0.00 | 76 | 1013.7 |
| 20260506162756 | 59 | 157 | 2.6 | 5.2 | 0.00 | 0.00 | 0.00 | 76 | 1013.7 |
| 20260506162256 | 59 | 157 | 2.6 | 4.3 | 0.00 | 0.00 | 0.00 | 75 | 1013.7 |
| 20260506161756 | 59 | 180 | 2.6 | 5.2 | 0.00 | 0.00 | 0.00 | 75 | 1013.7 |
| 20260506161256 | 60 | 157 | 2.6 | 6.1 | 0.00 | 0.00 | 0.00 | 74 | 1013.7 |
| 20260506160756 | 60 | 157 | 6.1 | 6.1 | 0.00 | 0.00 | 0.00 | 74 | 1013.7 |
| 20260506160256 | 60 | 180 | 1.7 | 7.8 | 0.00 | 0.00 | 0.00 | 73 | 1013.7 |
| 20260506155756 | 60 | 180 | 5.2 | 6.1 | 0.00 | 0.00 | 0.00 | 73 | 1013.7 |
| 20260506155256 | 60 | 157 | 3.5 | 7.0 | 0.00 | 0.00 | 0.00 | 72 | 1013.7 |
| 20260506154756 | 60 | 157 | 2.6 | 7.0 | 0.00 | 0.00 | 0.00 | 72 | 1013.7 |
| 20260506154256 | 60 | 157 | 3.5 | 7.0 | 0.00 | 0.00 | 0.00 | 71 | 1013.8 |
| 20260506153756 | 60 | 157 | 3.5 | 5.2 | 0.00 | 0.00 | 0.00 | 72 | 1013.8 |
| 20260506153256 | 60 | 135 | 5.2 | 6.1 | 0.00 | 0.00 | 0.00 | 72 | 1013.7 |
| 20260506152756 | 61 | 157 | 2.6 | 7.0 | 0.00 | 0.00 | 0.00 | 71 | 1013.7 |
| 20260506152256 | 61 | 135 | 2.6 | 7.0 | 0.00 | 0.00 | 0.00 | 71 | 1013.8 |
| 20260506151756 | 61 | 180 | 2.6 | 7.8 | 0.00 | 0.00 | 0.00 | 72 | 1013.9 |
| 20260506151256 | 61 | 157 | 3.5 | 7.8 | 0.00 | 0.00 | 0.00 | 71 | 1013.9 |
| 20260506150756 | 61 | 112 | 5.2 | 7.0 | 0.00 | 0.00 | 0.00 | 71 | 1013.9 |
| 20260506150303 | 61 | 135 | 4.3 | 7.8 | 0.00 | 0.00 | 0.00 | 71 | 1013.9 |
| 20260506145756 | 61 | 157 | 7.8 | 7.8 | 0.00 | 0.00 | 0.00 | 71 | 1014.0 |
| 20260506145256 | 61 | 157 | 7.0 | 9.6 | 0.00 | 0.00 | 0.00 | 69 | 1013.9 |
| 20260506144756 | 61 | 157 | 4.3 | 8.7 | 0.00 | 0.00 | 0.00 | 69 | 1013.9 |
| 20260506144256 | 61 | 180 | 7.8 | 8.7 | 0.00 | 0.00 | 0.00 | 68 | 1014.0 |
| 20260506143757 | 62 | 157 | 6.1 | 9.6 | 0.00 | 0.00 | 0.00 | 68 | 1013.9 |
| 20260506143257 | 62 | 180 | 4.3 | 8.7 | 0.00 | 0.00 | 0.00 | 68 | 1013.9 |
| 20260506142756 | 62 | 157 | 4.3 | 9.6 | 0.00 | 0.00 | 0.00 | 67 | 1013.9 |
| 20260506142257 | 62 | 157 | 4.3 | 7.0 | 0.00 | 0.00 | 0.00 | 68 | 1013.9 |
| 20260506141756 | 62 | 135 | 5.2 | 9.6 | 0.00 | 0.00 | 0.00 | 69 | 1013.9 |
| 20260506141257 | 63 | 135 | 4.3 | 8.7 | 0.00 | 0.00 | 0.00 | 69 | 1014.0 |
| 20260506140757 | 63 | 157 | 6.1 | 8.7 | 0.00 | 0.00 | 0.00 | 68 | 1014.1 |
| 20260506140257 | 63 | 135 | 7.0 | 8.7 | 0.00 | 0.00 | 0.00 | 68 | 1014.0 |
| 20260506135757 | 63 | 157 | 4.3 | 9.6 | 0.00 | 0.00 | 0.00 | 67 | 1014.0 |
| 20260506135257 | 63 | 157 | 7.0 | 9.6 | 0.00 | 0.00 | 0.00 | 67 | 1014.0 |
| 20260506134757 | 63 | 157 | 4.3 | 9.6 | 0.00 | 0.00 | 0.00 | 67 | 1014.1 |
| 20260506134257 | 63 | 135 | 6.1 | 9.6 | 0.00 | 0.00 | 0.00 | 66 | 1014.1 |
| 20260506133757 | 64 | 180 | 5.2 | 10.4 | 0.00 | 0.00 | 0.00 | 67 | 1014.1 |
| 20260506133257 | 64 | 157 | 7.0 | 9.6 | 0.00 | 0.00 | 0.00 | 67 | 1014.1 |
| 20260506132757 | 64 | 157 | 6.1 | 9.6 | 0.00 | 0.00 | 0.00 | 65 | 1014.0 |
| 20260506132257 | 64 | 135 | 7.0 | 10.4 | 0.00 | 0.00 | 0.00 | 65 | 1014.1 |
| 20260506131757 | 64 | 157 | 6.1 | 8.7 | 0.00 | 0.00 | 0.00 | 64 | 1014.1 |
| 20260506131257 | 65 | 157 | 7.0 | 10.4 | 0.00 | 0.00 | 0.00 | 62 | 1014.0 |
| 20260506130757 | 65 | 157 | 3.5 | 7.0 | 0.00 | 0.00 | 0.00 | 63 | 1014.1 |
| 20260506130257 | 65 | 157 | 3.5 | 10.4 | 0.00 | 0.00 | 0.00 | 63 | 1014.1 |
| 20260506125757 | 65 | 157 | 7.8 | 7.8 | 0.00 | 0.00 | 0.00 | 61 | 1014.1 |
| 20260506125257 | 65 | 135 | 3.5 | 8.7 | 0.00 | 0.00 | 0.00 | 61 | 1014.2 |
| 20260506124757 | 66 | 157 | 3.5 | 12.2 | 0.00 | 0.00 | 0.00 | 59 | 1014.2 |
| 20260506124257 | 66 | 180 | 7.8 | 8.7 | 0.00 | 0.00 | 0.00 | 60 | 1014.2 |
| 20260506123757 | 67 | 157 | 7.0 | 8.7 | 0.00 | 0.00 | 0.00 | 59 | 1014.2 |
| 20260506123257 | 67 | 135 | 3.5 | 7.0 | 0.00 | 0.00 | 0.00 | 60 | 1014.2 |
| 20260506122757 | 67 | 135 | 3.5 | 9.6 | 0.00 | 0.00 | 0.00 | 60 | 1014.3 |
| 20260506122257 | 67 | 157 | 3.5 | 7.0 | 0.00 | 0.00 | 0.00 | 59 | 1014.3 |
| 20260506121757 | 68 | 135 | 4.3 | 8.7 | 0.00 | 0.00 | 0.00 | 60 | 1014.3 |
| 20260506121257 | 68 | 157 | 4.3 | 7.8 | 0.00 | 0.00 | 0.00 | 59 | 1014.5 |
| 20260506120757 | 68 | 135 | 4.3 | 9.6 | 0.00 | 0.00 | 0.00 | 59 | 1014.4 |
| 20260506120257 | 68 | 180 | 7.0 | 7.0 | 0.00 | 0.00 | 0.00 | 59 | 1014.4 |
| 20260506115757 | 68 | 157 | 3.5 | 8.7 | 0.00 | 0.00 | 0.00 | 59 | 1014.5 |
| 20260506115257 | 69 | 157 | 3.5 | 7.8 | 0.00 | 0.00 | 0.00 | 58 | 1014.5 |
| 20260506114757 | 69 | 157 | 3.5 | 9.6 | 0.00 | 0.00 | 0.00 | 57 | 1014.5 |
| 20260506114257 | 69 | 180 | 6.1 | 9.6 | 0.00 | 0.00 | 0.00 | 56 | 1014.5 |
| 20260506113757 | 69 | 135 | 6.1 | 7.8 | 0.00 | 0.00 | 0.00 | 56 | 1014.5 |
| 20260506113257 | 69 | 157 | 7.0 | 10.4 | 0.00 | 0.00 | 0.00 | 56 | 1014.5 |
| 20260506112757 | 69 | 157 | 3.5 | 8.7 | 0.00 | 0.00 | 0.00 | 54 | 1014.6 |
| 20260506112257 | 69 | 135 | 5.2 | 8.7 | 0.00 | 0.00 | 0.00 | 56 | 1014.6 |
| 20260506111757 | 70 | 135 | 8.7 | 9.6 | 0.00 | 0.00 | 0.00 | 56 | 1014.7 |
| 20260506111257 | 70 | 157 | 7.0 | 9.6 | 0.00 | 0.00 | 0.00 | 55 | 1014.8 |
| 20260506110757 | 70 | 157 | 5.2 | 7.8 | 0.00 | 0.00 | 0.00 | 58 | 1014.7 |
| 20260506110257 | 69 | 135 | 7.8 | 7.8 | 0.00 | 0.00 | 0.00 | 57 | 1014.8 |
| 20260506105757 | 69 | 157 | 4.3 | 9.6 | 0.00 | 0.00 | 0.00 | 56 | 1014.7 |
| 20260506105257 | 69 | 180 | 5.2 | 8.7 | 0.00 | 0.00 | 0.00 | 56 | 1014.7 |
| 20260506104757 | 69 | 157 | 7.0 | 8.7 | 0.00 | 0.00 | 0.00 | 57 | 1014.8 |
| 20260506104257 | 69 | 135 | 3.5 | 8.7 | 0.00 | 0.00 | 0.00 | 56 | 1014.7 |
| 20260506103757 | 69 | 157 | 7.8 | 9.6 | 0.00 | 0.00 | 0.00 | 57 | 1014.8 |
| 20260506103257 | 69 | 157 | 5.2 | 7.0 | 0.00 | 0.00 | 0.00 | 57 | 1014.8 |
| 20260506102757 | 69 | 135 | 4.3 | 8.7 | 0.00 | 0.00 | 0.00 | 57 | 1014.7 |
| 20260506102257 | 69 | 135 | 5.2 | 7.8 | 0.00 | 0.00 | 0.00 | 57 | 1014.7 |
| 20260506101757 | 68 | 157 | 1.7 | 7.8 | 0.00 | 0.00 | 0.00 | 59 | 1014.7 |
| 20260506101257 | 68 | 180 | 3.5 | 9.6 | 0.00 | 0.00 | 0.00 | 59 | 1014.7 |
| 20260506100757 | 68 | 157 | 6.1 | 9.6 | 0.00 | 0.00 | 0.00 | 59 | 1014.7 |
| 20260506100257 | 68 | 135 | 4.3 | 8.7 | 0.00 | 0.00 | 0.00 | 60 | 1014.6 |
| 20260506095757 | 68 | 157 | 5.2 | 8.7 | 0.00 | 0.00 | 0.00 | 60 | 1014.6 |
| 20260506095257 | 68 | 157 | 7.0 | 8.7 | 0.00 | 0.00 | 0.00 | 59 | 1014.5 |
| 20260506094757 | 68 | 180 | 6.1 | 7.8 | 0.00 | 0.00 | 0.00 | 60 | 1014.6 |
| 20260506094257 | 68 | 180 | 6.1 | 8.7 | 0.00 | 0.00 | 0.00 | 59 | 1014.7 |
| 20260506093757 | 68 | 157 | 1.7 | 8.7 | 0.00 | 0.00 | 0.00 | 60 | 1014.6 |
| 20260506093257 | 68 | 135 | 4.3 | 7.8 | 0.00 | 0.00 | 0.00 | 60 | 1014.7 |
| 20260506092757 | 68 | 135 | 4.3 | 10.4 | 0.00 | 0.00 | 0.00 | 59 | 1014.7 |
| 20260506092257 | 69 | 135 | 6.1 | 7.8 | 0.00 | 0.00 | 0.00 | 58 | 1014.7 |
| 20260506091757 | 69 | 157 | 5.2 | 8.7 | 0.00 | 0.00 | 0.00 | 59 | 1014.6 |
| 20260506091257 | 69 | 157 | 3.5 | 7.8 | 0.00 | 0.00 | 0.00 | 60 | 1014.6 |
| 20260506090757 | 69 | 157 | 4.3 | 7.8 | 0.00 | 0.00 | 0.00 | 59 | 1014.6 |
| 20260506090257 | 69 | 157 | 6.1 | 8.7 | 0.00 | 0.00 | 0.00 | 60 | 1014.6 |
| 20260506085757 | 69 | 157 | 4.3 | 7.8 | 0.00 | 0.00 | 0.00 | 60 | 1014.5 |
| 20260506085257 | 69 | 135 | 4.3 | 7.0 | 0.00 | 0.00 | 0.00 | 59 | 1014.5 |
| 20260506084757 | 69 | 157 | 3.5 | 9.6 | 0.00 | 0.00 | 0.00 | 59 | 1014.5 |
| 20260506084257 | 70 | 180 | 4.3 | 7.0 | 0.00 | 0.00 | 0.00 | 59 | 1014.4 |
| 20260506083757 | 70 | 112 | 2.6 | 8.7 | 0.00 | 0.00 | 0.00 | 58 | 1014.4 |
| 20260506083257 | 70 | 180 | 3.5 | 6.1 | 0.00 | 0.00 | 0.00 | 59 | 1014.4 |
| 20260506082757 | 70 | 180 | 3.5 | 7.8 | 0.00 | 0.00 | 0.00 | 58 | 1014.4 |
| 20260506082257 | 70 | 157 | 2.6 | 7.8 | 0.00 | 0.00 | 0.00 | 59 | 1014.2 |
| 20260506081757 | 70 | 157 | 2.6 | 7.0 | 0.00 | 0.00 | 0.00 | 58 | 1014.3 |
| 20260506081257 | 70 | 157 | 4.3 | 8.7 | 0.00 | 0.00 | 0.00 | 56 | 1014.3 |
| 20260506080757 | 70 | 157 | 3.5 | 7.8 | 0.00 | 0.00 | 0.00 | 56 | 1014.3 |
| 20260506080257 | 70 | 157 | 2.6 | 5.2 | 0.00 | 0.00 | 0.00 | 57 | 1014.2 |
| 20260506073257 | 69 | 135 | 3.5 | 5.2 | 0.00 | 0.00 | 0.00 | 54 | 1014.1 |
| 20260506072757 | 70 | 112 | 4.3 | 7.8 | 0.00 | 0.00 | 0.00 | 54 | 1014.1 |
| 20260506072257 | 70 | 157 | 3.5 | 6.1 | 0.00 | 0.00 | 0.00 | 54 | 1014.1 |
| 20260506071757 | 70 | 112 | 3.5 | 5.2 | 0.00 | 0.00 | 0.00 | 53 | 1014.0 |
| 20260506071257 | 70 | 157 | 5.2 | 5.2 | 0.00 | 0.00 | 0.00 | 53 | 1014.0 |
| 20260506070757 | 70 | 157 | 1.7 | 5.2 | 0.00 | 0.00 | 0.00 | 52 | 1013.9 |
| 20260506070257 | 70 | 157 | 3.5 | 5.2 | 0.00 | 0.00 | 0.00 | 50 | 1013.8 |
| 20260506062257 | 77 | 157 | 0.9 | 2.6 | 0.00 | 0.00 | 0.00 | 37 | 1013.5 |
| 20260506061757 | 77 | 157 | 0.9 | 2.6 | 0.00 | 0.00 | 0.00 | 39 | 1013.5 |
| 20260506061257 | 78 | 135 | 0.0 | 1.7 | 0.00 | 0.00 | 0.00 | 38 | 1013.3 |
| 20260506060757 | 78 | 157 | 1.7 | 1.7 | 0.00 | 0.00 | 0.00 | 39 | 1013.4 |
| 20260506060257 | 78 | 180 | 0.9 | 1.7 | 0.00 | 0.00 | 0.00 | 40 | 1013.3 |
| 20260506051257 | 69 | 292 | 0.0 | 0.9 | 0.00 | 0.00 | 0.00 | 49 | 1013.1 |
| 20260506050757 | 70 | 247 | 0.0 | 0.9 | 0.00 | 0.00 | 0.00 | 48 | 1013.2 |
| 20260506050257 | 71 | 270 | 0.0 | 0.9 | 0.00 | 0.00 | 0.00 | 48 | 1013.1 |
| 20260506044757 | 66 | 22 | 0.0 | 0.0 | 0.00 | 0.00 | 0.00 | 55 | 1013.0 |
| 20260506044257 | 64 | 0 | 0.0 | 0.0 | 0.00 | 0.00 | 0.00 | 58 | 1012.9 |
| 20260506043757 | 62 | 0 | 0.0 | 0.0 | 0.00 | 0.00 | 0.00 | 61 | 1013.0 |
| 20260506043257 | 60 | 0 | 0.0 | 0.9 | 0.00 | 0.00 | 0.00 | 64 | 1012.9 |
| 20260506042757 | 59 | 22 | 0.0 | 0.9 | 0.00 | 0.00 | 0.00 | 65 | 1013.0 |
| 20260506042257 | 58 | 22 | 0.0 | 1.7 | 0.00 | 0.00 | 0.00 | 67 | 1012.9 |
| 20260506041757 | 57 | 22 | 0.0 | 1.7 | 0.00 | 0.00 | 0.00 | 68 | 1012.9 |
| 20260506041257 | 57 | 22 | 1.7 | 1.7 | 0.00 | 0.00 | 0.00 | 68 | 1012.8 |
| 20260506040757 | 56 | 22 | 0.0 | 0.9 | 0.00 | 0.00 | 0.00 | 69 | 1012.7 |
| 20260506040257 | 55 | 22 | 0.0 | 0.9 | 0.00 | 0.00 | 0.00 | 69 | 1012.7 |
| 20260506035757 | 54 | 22 | 0.0 | 0.0 | 0.00 | 0.00 | 0.00 | 70 | 1012.5 |
| 20260506035257 | 52 | 45 | 0.0 | 0.0 | 0.00 | 0.00 | 0.00 | 73 | 1012.5 |
| 20260506034757 | 51 | 45 | 0.0 | 0.0 | 0.00 | 0.00 | 0.00 | 74 | 1012.4 |
| 20260506034257 | 49 | 45 | 0.0 | 0.0 | 0.00 | 0.00 | 0.00 | 78 | 1012.4 |
| 20260506033757 | 47 | 22 | 0.0 | 0.0 | 0.00 | 0.00 | 0.00 | 81 | 1012.4 |
| 20260506033257 | 44 | 0 | 0.0 | 0.0 | 0.00 | 0.00 | 0.00 | 84 | 1012.4 |
| 20260506032757 | 42 | 0 | 0.0 | 0.0 | 0.00 | 0.00 | 0.00 | 84 | 1012.4 |
| 20260506032257 | 41 | 0 | 0.0 | 0.0 | 0.00 | 0.00 | 0.00 | 84 | 1012.4 |
| 20260506031757 | 40 | 0 | 0.0 | 0.0 | 0.00 | 0.00 | 0.00 | 84 | 1012.4 |
| 20260506031257 | 40 | 0 | 0.0 | 0.0 | 0.00 | 0.00 | 0.00 | 84 | 1012.3 |
| 20260506030757 | 40 | 0 | 0.0 | 0.0 | 0.00 | 0.00 | 0.00 | 85 | 1012.4 |
| 20260506030258 | 40 | 337 | 0.0 | 0.9 | 0.00 | 0.00 | 0.00 | 85 | 1012.3 |
| 20260506025757 | 39 | 0 | 0.0 | 1.7 | 0.00 | 0.00 | 0.00 | 85 | 1012.3 |
| 20260506025258 | 39 | 337 | 0.9 | 0.9 | 0.00 | 0.00 | 0.00 | 86 | 1012.3 |
| 20260506024758 | 39 | 337 | 0.0 | 0.9 | 0.00 | 0.00 | 0.00 | 86 | 1012.2 |
| 20260506024257 | 39 | 337 | 0.0 | 0.9 | 0.00 | 0.00 | 0.00 | 86 | 1012.1 |
| 20260506023758 | 39 | 0 | 0.9 | 0.9 | 0.00 | 0.00 | 0.00 | 86 | 1012.2 |
| 20260506023258 | 39 | 0 | 0.9 | 1.7 | 0.00 | 0.00 | 0.00 | 86 | 1012.2 |
| 20260506022758 | 38 | 0 | 0.0 | 0.0 | 0.00 | 0.00 | 0.00 | 86 | 1012.2 |
| 20260506022258 | 38 | 22 | 0.0 | 0.9 | 0.00 | 0.00 | 0.00 | 86 | 1012.2 |
| 20260506021758 | 38 | 0 | 0.0 | 0.9 | 0.00 | 0.00 | 0.00 | 86 | 1012.1 |
| 20260506021258 | 38 | 0 | 0.0 | 1.7 | 0.00 | 0.00 | 0.00 | 86 | 1012.2 |
| 20260506020758 | 38 | 0 | 0.0 | 0.0 | 0.00 | 0.00 | 0.00 | 86 | 1012.2 |
| 20260506020258 | 38 | 0 | 0.0 | 0.0 | 0.00 | 0.00 | 0.00 | 86 | 1012.1 |
| 20260506015758 | 38 | 337 | 0.0 | 0.9 | 0.00 | 0.00 | 0.00 | 87 | 1012.2 |
| 20260506015258 | 38 | 337 | 0.0 | 0.0 | 0.00 | 0.00 | 0.00 | 87 | 1012.2 |
| 20260506014758 | 37 | 0 | 0.0 | 0.0 | 0.00 | 0.00 | 0.00 | 87 | 1012.1 |
| 20260506014258 | 37 | 22 | 0.0 | 0.0 | 0.00 | 0.00 | 0.00 | 87 | 1012.0 |
| 20260506013758 | 37 | 45 | 0.0 | 0.9 | 0.00 | 0.00 | 0.00 | 86 | 1012.1 |
| 20260506013258 | 37 | 22 | 0.0 | 0.0 | 0.00 | 0.00 | 0.00 | 86 | 1012.1 |
| 20260506012758 | 37 | 22 | 0.0 | 0.0 | 0.00 | 0.00 | 0.00 | 86 | 1012.1 |
| 20260506012258 | 37 | 337 | 0.0 | 0.0 | 0.00 | 0.00 | 0.00 | 86 | 1012.2 |
| 20260506011758 | 37 | 337 | 0.0 | 0.0 | 0.00 | 0.00 | 0.00 | 86 | 1012.1 |
| 20260506011258 | 37 | 337 | 0.0 | 0.0 | 0.00 | 0.00 | 0.00 | 86 | 1012.1 |
| 20260506010758 | 37 | 22 | 0.0 | 0.0 | 0.00 | 0.00 | 0.00 | 86 | 1012.2 |
| 20260506010258 | 37 | 22 | 0.0 | 0.0 | 0.00 | 0.00 | 0.00 | 86 | 1012.2 |
| 20260506005758 | 37 | 22 | 0.0 | 0.0 | 0.00 | 0.00 | 0.00 | 86 | 1012.2 |
| 20260506005258 | 37 | 22 | 0.0 | 0.0 | 0.00 | 0.00 | 0.00 | 86 | 1012.2 |
| 20260506004758 | 37 | 22 | 0.0 | 0.0 | 0.00 | 0.00 | 0.00 | 85 | 1012.2 |
| 20260506004258 | 37 | 22 | 0.0 | 0.0 | 0.00 | 0.00 | 0.00 | 85 | 1012.1 |
| 20260506003758 | 37 | 22 | 0.0 | 0.0 | 0.00 | 0.00 | 0.00 | 86 | 1012.2 |
| 20260506003258 | 37 | 22 | 0.0 | 0.0 | 0.00 | 0.00 | 0.00 | 86 | 1012.1 |
| 20260506002758 | 37 | 22 | 0.0 | 0.0 | 0.00 | 0.00 | 0.00 | 86 | 1012.1 |
| 20260506002258 | 37 | 22 | 0.0 | 1.7 | 0.00 | 0.00 | 0.00 | 86 | 1012.2 |
| 20260506001758 | 37 | 22 | 0.9 | 0.9 | 0.00 | 0.00 | 0.00 | 86 | 1012.1 |
| 20260506001258 | 38 | 45 | 0.0 | 0.0 | 0.00 | 0.00 | 0.00 | 86 | 1012.2 |
| 20260506000758 | 38 | 337 | 0.0 | 0.0 | 0.00 | 0.00 | 0.00 | 85 | 1012.1 |
| 20260506000258 | 38 | 337 | 0.0 | 0.0 | 0.00 | 0.00 | 0.00 | 85 | 1012.2 |
| 20260505235758 | 38 | 337 | 0.0 | 0.9 | 0.00 | 0.00 | 0.00 | 85 | 1012.2 |
| 20260505235258 | 38 | 337 | 0.0 | 0.0 | 0.00 | 0.00 | 0.00 | 85 | 1012.2 |
| 20260505234758 | 39 | 337 | 0.0 | 0.0 | 0.00 | 0.00 | 0.00 | 85 | 1012.3 |
| 20260505234258 | 39 | 337 | 0.0 | 0.0 | 0.00 | 0.00 | 0.00 | 85 | 1012.3 |
| 20260505233758 | 39 | 337 | 0.0 | 0.0 | 0.00 | 0.00 | 0.00 | 85 | 1012.3 |
| 20260505233258 | 40 | 337 | 0.0 | 0.9 | 0.00 | 0.00 | 0.00 | 85 | 1012.4 |
| 20260505232758 | 40 | 0 | 0.0 | 0.0 | 0.00 | 0.00 | 0.00 | 85 | 1012.4 |
| 20260505232258 | 40 | 337 | 0.0 | 0.0 | 0.00 | 0.00 | 0.00 | 84 | 1012.4 |
| 20260505231758 | 40 | 22 | 0.0 | 0.0 | 0.00 | 0.00 | 0.00 | 84 | 1012.5 |
| 20260505231258 | 40 | 22 | 0.0 | 0.0 | 0.00 | 0.00 | 0.00 | 84 | 1012.5 |
| 20260505230758 | 40 | 22 | 0.0 | 0.0 | 0.00 | 0.00 | 0.00 | 84 | 1012.5 |
| 20260505230258 | 41 | 0 | 0.0 | 0.0 | 0.00 | 0.00 | 0.00 | 83 | 1012.6 |
| 20260505225758 | 41 | 0 | 0.0 | 0.0 | 0.00 | 0.00 | 0.00 | 83 | 1012.6 |
| 20260505225258 | 41 | 0 | 0.0 | 0.0 | 0.00 | 0.00 | 0.00 | 83 | 1012.6 |
| 20260505224758 | 41 | 0 | 0.0 | 0.0 | 0.00 | 0.00 | 0.00 | 83 | 1012.7 |
| 20260505224258 | 42 | 22 | 0.0 | 0.0 | 0.00 | 0.00 | 0.00 | 84 | 1012.6 |
| 20260505223758 | 42 | 270 | 0.0 | 0.0 | 0.00 | 0.00 | 0.00 | 84 | 1012.7 |
| 20260505223258 | 42 | 292 | 0.0 | 0.0 | 0.00 | 0.00 | 0.00 | 84 | 1012.7 |
| 20260505222758 | 42 | 225 | 0.0 | 0.0 | 0.00 | 0.00 | 0.00 | 83 | 1012.8 |
| 20260505222258 | 42 | 225 | 0.0 | 0.0 | 0.00 | 0.00 | 0.00 | 83 | 1012.8 |
| 20260505221758 | 42 | 225 | 0.0 | 0.0 | 0.00 | 0.00 | 0.00 | 83 | 1012.8 |
| 20260505221258 | 43 | 225 | 0.0 | 0.0 | 0.00 | 0.00 | 0.00 | 83 | 1012.8 |
| 20260505220758 | 43 | 225 | 0.0 | 0.0 | 0.00 | 0.00 | 0.00 | 3 | 1012.9 |
| 20260505220258 | 43 | 225 | 0.0 | 0.0 | 0.00 | 0.00 | 0.00 | 83 | 1012.9 |
| 20260505215758 | 44 | 225 | 0.0 | 0.0 | 0.00 | 0.00 | 0.00 | 83 | 1012.9 |
| 20260505215258 | 44 | 225 | 0.0 | 0.0 | 0.00 | 0.00 | 0.00 | 83 | 1013.0 |
| 20260505214758 | 45 | 247 | 0.0 | 0.9 | 0.00 | 0.00 | 0.00 | 83 | 1013.0 |
| 20260505214258 | 45 | 247 | 0.9 | 0.9 | 0.00 | 0.00 | 0.00 | 84 | 1013.0 |
| 20260505213758 | 46 | 247 | 0.0 | 1.7 | 0.00 | 0.00 | 0.00 | 84 | 1013.0 |
| 20260505213258 | 46 | 225 | 0.9 | 2.6 | 0.00 | 0.00 | 0.00 | 85 | 1013.1 |
| 20260505212758 | 45 | 225 | 1.7 | 2.6 | 0.00 | 0.00 | 0.00 | 86 | 1013.1 |
| 20260505212258 | 44 | 202 | 1.7 | 4.3 | 0.00 | 0.00 | 0.00 | 87 | 1013.2 |
| 20260505211758 | 44 | 225 | 1.7 | 3.5 | 0.00 | 0.00 | 0.00 | 87 | 1013.2 |
| 20260505211258 | 43 | 225 | 1.7 | 2.6 | 0.00 | 0.00 | 0.00 | 87 | 1013.3 |
| 20260505210758 | 42 | 202 | 1.7 | 1.7 | 0.00 | 0.00 | 0.00 | 86 | 1013.4 |
| 20260505210258 | 41 | 225 | 1.7 | 1.7 | 0.00 | 0.00 | 0.00 | 84 | 1013.4 |
| 20260505205758 | 42 | 225 | 0.0 | 0.0 | 0.00 | 0.00 | 0.00 | 83 | 1013.5 |
| 20260505205258 | 42 | 270 | 0.0 | 0.0 | 0.00 | 0.00 | 0.00 | 83 | 1013.5 |
| 20260505204758 | 43 | 270 | 0.0 | 0.0 | 0.00 | 0.00 | 0.00 | 83 | 1013.5 |
| 20260505204258 | 43 | 270 | 0.0 | 0.0 | 0.00 | 0.00 | 0.00 | 83 | 1013.5 |
| 20260505203758 | 43 | 270 | 0.0 | 0.0 | 0.00 | 0.00 | 0.00 | 83 | 1013.5 |
| 20260505203258 | 44 | 270 | 0.0 | 0.0 | 0.00 | 0.00 | 0.00 | 83 | 1013.5 |
| 20260505202758 | 44 | 270 | 0.0 | 0.0 | 0.00 | 0.00 | 0.00 | 83 | 1013.4 |
| 20260505202258 | 44 | 270 | 0.0 | 0.0 | 0.00 | 0.00 | 0.00 | 82 | 1013.4 |
| 20260505201758 | 44 | 247 | 0.0 | 0.0 | 0.00 | 0.00 | 0.00 | 82 | 1013.5 |
| 20260505201258 | 44 | 270 | 0.0 | 0.0 | 0.00 | 0.00 | 0.00 | 82 | 1013.5 |
| 20260505200758 | 44 | 247 | 0.0 | 0.0 | 0.00 | 0.00 | 0.00 | 81 | 1013.5 |
| 20260505200258 | 45 | 247 | 0.0 | 0.0 | 0.00 | 0.00 | 0.00 | 81 | 1013.6 |
| 20260505195758 | 45 | 247 | 0.0 | 0.0 | 0.00 | 0.00 | 0.00 | 81 | 1013.6 |
| 20260505195258 | 46 | 225 | 0.0 | 0.0 | 0.00 | 0.00 | 0.00 | 80 | 1013.6 |
| 20260505194758 | 46 | 225 | 0.0 | 0.0 | 0.00 | 0.00 | 0.00 | 80 | 1013.6 |
| 20260505194258 | 46 | 225 | 0.0 | 0.9 | 0.00 | 0.00 | 0.00 | 80 | 1013.6 |
| 20260505193758 | 47 | 225 | 0.0 | 0.9 | 0.00 | 0.00 | 0.00 | 80 | 1013.5 |
| 20260505193258 | 47 | 225 | 0.0 | 0.0 | 0.00 | 0.00 | 0.00 | 79 | 1013.5 |
| 20260505192758 | 48 | 225 | 0.0 | 0.9 | 0.00 | 0.00 | 0.00 | 79 | 1013.5 |
| 20260505192258 | 48 | 202 | 0.0 | 0.9 | 0.00 | 0.00 | 0.00 | 79 | 1013.5 |
| 20260505191758 | 49 | 247 | 0.9 | 0.9 | 0.00 | 0.00 | 0.00 | 78 | 1013.5 |
| 20260505191258 | 49 | 247 | 0.0 | 0.9 | 0.00 | 0.00 | 0.00 | 79 | 1013.5 |
| 20260505190758 | 50 | 247 | 0.0 | 0.9 | 0.00 | 0.00 | 0.00 | 79 | 1013.5 |
| 20260505190258 | 51 | 225 | 0.9 | 4.3 | 0.00 | 0.00 | 0.00 | 80 | 1013.5 |
| 20260505185758 | 51 | 202 | 1.7 | 2.6 | 0.00 | 0.00 | 0.00 | 82 | 1013.4 |
| 20260505185259 | 51 | 180 | 0.0 | 4.3 | 0.00 | 0.00 | 0.00 | 82 | 1013.5 |
| 20260505184758 | 51 | 180 | 0.9 | 4.3 | 0.00 | 0.00 | 0.00 | 81 | 1013.5 |
| 20260505184258 | 51 | 202 | 1.7 | 4.3 | 0.00 | 0.00 | 0.00 | 82 | 1013.4 |
| 20260505183758 | 51 | 202 | 4.3 | 4.3 | 0.00 | 0.00 | 0.00 | 82 | 1013.4 |
| 20260505183258 | 51 | 180 | 0.9 | 4.3 | 0.00 | 0.00 | 0.00 | 81 | 1013.5 |
| 20260505182758 | 51 | 180 | 0.9 | 2.6 | 0.00 | 0.00 | 0.00 | 81 | 1013.6 |
| 20260505182258 | 51 | 202 | 1.7 | 2.6 | 0.00 | 0.00 | 0.00 | 81 | 1013.5 |
| 20260505181758 | 51 | 180 | 1.7 | 2.6 | 0.00 | 0.00 | 0.00 | 81 | 1013.4 |
| 20260505181258 | 51 | 180 | 0.9 | 1.7 | 0.00 | 0.00 | 0.00 | 81 | 1013.3 |
| 20260505180758 | 51 | 180 | 1.7 | 2.6 | 0.00 | 0.00 | 0.00 | 81 | 1013.3 |